Hourly Data Report for October 04, 2017

All times are specified in Local Standard Time (LST). Add 1 hour to adjust for Daylight Saving Time where and when it is observed.

ABBOTSFORD A
BRITISH COLUMBIA

49°01'31.000" N
122°21'36.000" W
59.10 m
1100031
71108
YXX

Download Data

Hourly Data (October 2017)
Hourly Data Report for October 4, 2017
Temp Definition
°C
Dew Point Temp Definition
°C
Rel Hum Definition
%
Wind Dir Definition
10's deg

Wind Spd Definition
km/h
Visibility Definition
km
Stn Press Definition
kPa
Hmdx Definition


Wind Chill Definition


Weather Definition


TIME
00:00 Legend Double Dagger 6.7 4.0 83 36 2 24.1 101.60     LegendNANA
01:00 Legend Double Dagger 5.2 2.9 85 19 3 24.1 101.62     Clear
02:00 Legend Double Dagger 5.2 3.5 89 36 4 24.1 101.61     LegendNANA
03:00 Legend Double Dagger 5.5 2.7 82 1 8 24.1 101.57     LegendNANA
04:00 Legend Double Dagger 5.5 2.2 79 36 7 24.1 101.52     Clear
05:00 Legend Double Dagger 7.6 1.4 65 1 7 48.3 101.49     LegendNANA
06:00 Legend Double Dagger 7.4 1.0 64 4 7 48.3 101.48     LegendNANA
07:00 Legend Double Dagger 9.0 0.6 55 35 6 48.3 101.52     Mainly Clear
08:00 Legend Double Dagger 11.2 1.8 52 34 9 48.3 101.53     LegendNANA
09:00 Legend Double Dagger 13.7 1.0 42 34 8 48.3 101.53     LegendNANA
10:00 Legend Double Dagger 15.5 1.0 37 1 9 48.3 101.51     Mostly Cloudy
11:00 Legend Double Dagger 17.2 0.2 31 33 6 48.3 101.47     LegendNANA
12:00 Legend Double Dagger 18.2 0.0 29 29 4 48.3 101.45     LegendNANA
13:00 Legend Double Dagger 18.5 0.4 29 22 4 48.3 101.41     Mostly Cloudy
14:00 Legend Double Dagger 19.7 1.3 29 23 9 48.3 101.39     LegendNANA
15:00 Legend Double Dagger 20.1 3.9 34 29 9 48.3 101.38     LegendNANA
16:00 Legend Double Dagger 19.6 3.8 35 30 11 48.3 101.36     Mostly Cloudy
17:00 Legend Double Dagger 18.1 1.9 33 29 7 48.3 101.35     LegendNANA
18:00 Legend Double Dagger 15.7 4.1 46 36 1 48.3 101.36     LegendNANA
19:00 Legend Double Dagger 12.0 5.2 63 34 3 24.1 101.38     Mostly Cloudy
20:00 Legend Double Dagger 9.3 4.5 72 34 7 24.1 101.40     LegendNANA
21:00 Legend Double Dagger 8.3 3.8 73 11 5 24.1 101.42     LegendNANA
22:00 Legend Double Dagger 8.0 4.1 76 36 2 24.1 101.44     Mostly Cloudy
23:00 Legend Double Dagger 7.7 4.9 82 31 3 24.1 101.47     LegendNANA

Notes on Data Quality.

Legend

  • E = Estimated
  • M = Missing
  • NA = Not Available
  • ‡ = Partner data that is not subject to review by the National Climate Archives
Date modified: